www.pogodaiklimat.ru

Погода и климат >> Архив погоды >> Россия >> Ханты-Мансийский АО >> Леуши


ПОГОДА в Леушах

  • Прогноз погоды в Леушах
  • Монитор погоды в Леушах
  • Климат города

АРХИВ ПОГОДЫ в Леушах

Время (UTC), дата Ветер
(напр.,м/с)
 
Видим.   Явления Облачность Т
(С)
Тd
(С)
f
(%)
Тe
(С)
Тes
(С)
Комфортность P
(гПа)
Po
(гПа)
Тmin
(С)
Tmax
(С)
R
(мм)
R24
(мм)
S
(см)
06 17.05 штиль 0 50 км в посл. час ливневой дождь 5/5 600 м
[Cb cap]
+6.0 -2.8 53 +6 +14 1027.8 1019.0
09 17.05 СЗ 2 10 км слабый ливневой дождь 10/8 600 м
[Cb cap Ac trans Ci sp]
+4.5 -0.5 70 +2 +3 1028.1 1019.3
12 17.05 З 1
{10}
50 км {ливн. осадки} 3/3 600 м
[Cb cap Cc]
+7.9 -3.9 43 +8 +12 1027.2 1018.5
15 17.05 ЮВ 1 50 км 10/0
[Ac lent Ci fib]
+6.8 -3.7 47 +6 +7 1026.2 1017.5 +8.1
18 17.05 Ю 3 20 км 3/0
[Ci fib]
+4.0 -4.9 52 +1 +1 1025.8 1017.0
21 17.05 Ю 3 50 км 3/0
[Ci fib]
+2.8 -4.1 60 -1 -1 1024.9 1016.1
00 18.05 Ю 2 50 км 10/0
[Ac As]
+1.8 -4.8 62 -1 -1 1023.7 1014.8
03 18.05 Ю 2 50 км 10/0
[Ac As]
+1.8 -4.8 62 -1 +1 1023.7 1014.8
06 18.05 Ю 2 50 км 10/0
[Ci fib]
+10.2 -3.7 37 +9 +19 опасность
простуды
1022.0 1013.5 +1.8
09 18.05 З 3 50 км 10/3 600 м
[Sc diur, vesp Ci sp]
+15.0 -6.5 22 +15 +20 1018.0 1009.6
12 18.05 З 3
{11}
50 км 3/1 600 м
[Sc diur, vesp Ac lent Ci]
+16.2 -9.8 16 +16 +20 1016.9 1008.5
15 18.05 З 2
{10}
50 км 10/1 600 м
[Sc diur, vesp Ci fib]
+14.9 -6.9 22 +15 +15 1016.5 1008.1 +16.5
18 18.05 ЮЗ 1 20 км 10/3 600 м
[Cb cap Ac cast Ci fib]
+10.3 -5.4 33 +11 +11 1016.6 1008.1
21 18.05 СЗ 2 20 км 10/3 600 м
[Cb cap Ci fib]
+8.0 -1.3 52 +7 +7 1018.1 1009.5
00 19.05 ЮЗ 1 50 км 10/3 600 м
[Sc diur, vesp Ac lent Cc]
+5.3 -3.3 54 +5 +5 1019.2 1010.5
03 19.05 СЗ 1 50 км 10/1 600 м
[Sc diur, vesp Ac trans Ci]
+10.7 -0.6 45 +11 +13 1019.7 1011.2 +4.9
06 19.05 С 2 50 км 10/1 600 м
[Sc diur, vesp Ac lent Ci sp]
+11.7 -1.4 40 +11 +16 1019.8 1011.3
09 19.05 В 2 50 км 10/3 600 м
[Sc diur, vesp Ac lent Cs]
+15.7 -0.2 34 +16 +20 1017.8 1009.4
12 19.05 В 2 50 км 10/4 600 м
[Sc Ac As Ci fib]
+15.7 +0.8 36 +16 +18 1015.6 1007.3
15 19.05 В 3 50 км 10/10 600 м
[Cb cap]
+11.9 +3.8 58 +11 +11 1014.8 1006.3 +16.8
18 19.05 В 2 10 км слабый дождь 10/10 600 м
[Sc]
+8.4 +5.4 81 +7 +7 1015.3 1006.7
21 19.05 ЮВ 3 20 км {дождь} 10/9 600 м
[Sc Ci fib]
+7.3 +4.4 82 +4 +4 1014.9 1006.3
00 20.05 ЮВ 1 50 км {дождь} 10/3 600 м
[Sc Ac As Ci fib]
+6.8 +4.7 86 +6 +6 1014.9 1006.3
03 20.05 В 2 50 км 10/3 600 м
[Sc diur, vesp Ac trans Ci fib]
+9.2 +5.6 78 +8 +9 1014.6 1006.1 +6.3 0.0
06 20.05 В 2 50 км 10/8 600 м
[Sc Ac trans Ci fib]
+13.7 +5.6 58 +13 +15 1013.9 1005.5
09 20.05 З 1 50 км 10/8 600 м
[Cu Sc Ac trans Ci fib]
+15.9 +4.3 46 +17 +18 1012.4 1004.0
12 20.05 Ю 1 50 км 10/10 600 м
[Cu Sc]
+14.7 +4.3 50 +15 +15 1011.0 1002.7
15 20.05 Ю 2 50 км 10/10 600 м
[Sc]
+14.8 +6.4 57 +15 +15 1008.6 1000.3 +15.9
18 20.05 Ю 3 20 км 10/10 600 м
[Sc]
+13.2 +7.7 69 +12 +12 1006.3 998.0
21 20.05 Ю 3 20 км 10/10 600 м
[Sc]
+13.5 +6.6 63 +12 +12 1002.5 994.2
00 21.05 Ю 2 50 км 10/8 600 м
[Sc Ac As]
+13.9 +6.5 61 +14 +14 999.6 991.3
03 21.05 Ю 2 50 км 4/0
[Ac lent Ci sp]
+18.5 +6.6 46 +19 +23 997.6 989.5 +12.8
06 21.05 З 3
{10}
50 км 10/10 600 м
[Sc]
+19.7 +6.3 42 +21 +21 комфорт 997.0 988.9
09 21.05 З 3
{11}
50 км 10/8 600 м
[Cu Sc Ci sp]
+19.2 +7.0 45 +20 +22 998.0 989.9
12 21.05 З 2 50 км в посл. час дождь 10/10 600 м
[Sc]
+16.9 +8.8 59 +17 +17 998.8 990.7
15 21.05 штиль 0 10 км слабый дождь 10/10 300 м
[Frnb Ns]
+12.5 +11.3 92 +12 +12 999.0 990.7 +20.2 2
18 21.05 З 1 20 км в посл. час дождь 10/10 300 м
[Frnb]
+11.3 +10.5 95 +11 +11 998.9 990.6
21 21.05 СВ 1 4000 м слабый дождь 10/10 300 м
[Frnb Ns]
+10.1 +9.1 94 +10 +10 997.3 988.9
00 22.05 СВ 4 4000 м слабый дождь 10/0 300 м
[As op]
+9.0 +7.8 92 +6 +6 994.3 985.9
03 22.05 С 6 4000 м слабый дождь 10/10 300 м
[Frnb Ns]
+6.1 +5.1 93 +1 +1 992.4 984.0 +6.1 14
06 22.05 С 6-10
{12}
10 км слабый дождь 10/10 300 м
[Frnb]
+4.6 +3.2 91 -1 -1 993.1 984.6 +4.6
09 22.05 СЗ 7-10
{12}
10 км слабый дождь 10/10 600 м
[Sc]
+4.8 +3.2 89 -1 -1 996.5 988.0
12 22.05 З 3
{12}
4000 м слабый дождь 10/10 300 м
[Frnb Ns]
+4.1 +3.0 93 0 0 1001.0 992.4
15 22.05 З 1 50 км в посл. час дождь 10/3 300 м
[Frnb Ac cast Cc]
+4.4 +3.0 91 +3 +3 1002.4 993.9 +6.0 8
18 22.05 Ю 1 20 км {дождь} 3/1 600 м
[Sc diur, vesp Ci fib]
+2.1 +1.5 96 0 0 1003.6 994.9
21 22.05 ЮЗ 1 20 км 10/0
[Ci fib]
+0.8 -0.1 94 -1 -1 1004.4 995.7
00 23.05 ЮЗ 1 50 км 9/0
[Ci fib]
+0.5 -1.5 86 -1 -1 1005.5 996.8
03 23.05 СЗ 4 50 км 9/0
[Ci sp]
+3.8 +0.6 80 -1 +2 1005.0 996.4 +0.3
06 23.05 С 2 50 км 10/3 600 м
[Sc diur, vesp Cc]
+7.9 -2.3 48 +6 +13 1005.0 996.5
09 23.05 С 4 50 км 10/8 600 м
[Sc Cs]
+9.2 -2.6 43 +7 +8 1004.5 996.0
12 23.05 С 5 50 км 10/4 600 м
[Sc Ac As]
+9.2 -2.4 44 +6 +7 1004.0 995.5
15 23.05 СВ 4 50 км 10/5 600 м
[Sc Cc]
+8.2 -0.6 54 +5 +6 1003.4 994.9 +9.5
18 23.05 С 3 20 км 10/1 600 м
[Sc diur, vesp Ac As Cc]
+5.9 -0.9 62 +3 +3 1004.6 996.0
21 23.05 С 4 20 км 10/5 600 м
[Sc Ac cast Ci fib]
+4.3 -1.1 68 0 0 1004.5 995.9
00 24.05 С 4 50 км 10/1 600 м
[Sc diur, vesp Ac As Ci sp]
+2.8 -2.1 70 -2 -2 1005.0 996.3
03 24.05 С 3 50 км 10/0
[Ci sp]
+3.8 -3.0 61 +1 +4 1005.5 996.9 +2.6

 

Местоположение метеостанции Леуши (Ханты-Мансийский АО, Россия): широта 59.63 долгота 65.72 высота над уровнем моря 72 м.

В архиве по умолчанию представлена погода в Леушах за последнюю неделю. Архивные данные за месяц целиком и за предыдущие месяцы, начиная с января 2011 года, Вы можете получить, выбрав интересующий диапазон дат из раскрывающегося списка и нажав кнопку "Ввод!".

Внимание! Время в таблицах - всемирное. Для получения местного времени необходимо прибавить поправку, которая в Леушах равна 5 ч.

Смотрите также архив погоды в соседних городах и на ближайших метеорологических станциях:

Погода в Кондинском (Ханты-Мансийский АО, Россия) (96 км)
Погода в Куминской (Ханты-Мансийский АО, Россия) (103 км)
Погода в Шаиме (Ханты-Мансийский АО, Россия) (113 км)
Погода в Таборах (Свердловская область, Россия) (141 км)
Погода в Тавде (Свердловская область, Россия) (175 км)
Погода в Увате (Тюменская область, Россия) (188 км)
Погода в Гари (Свердловская область, Россия) (192 км)
Погода в Алтае (Ханты-Мансийский АО, Россия) (197 км)
Погода в Демьянском (Тюменская область, Россия) (200 км)
Погода в Туринске (Свердловская область, Россия) (211 км)

Пояснения к столбцам:

Ветер - указаны скорость ветра в м/с - средняя за 10 мин, порывы в срок и между сроками (в фигурных скобках) и направление, откуда дует ветер: С - северный, СВ - северо-восточный, В - восточный, ЮВ - юго-восточный, Ю - южный, ЮЗ - юго-западный, З - западный, СЗ - северо-западный.
Видимость - горизонтальная дальность видимости в метрах или километрах. При видимости от 1 до 10 км при отсутствии осадков обычно наблюдается дымка, при ухудшении видимости до 1 км и менее - туман. В сухую погоду видимость может ухудшаться дымом, пылью или мглою.
Явления - указаны атмосферные явления, наблюдавшиеся в срок или в последний час перед сроком; фигурными скобками обозначены явления, наблюдавшиеся между сроками (за 1-3 часа до срока); квадратными скобками обозначены град или гололедные отложения с указанием их диаметра в мм.
Облачность - указаны через наклонную черту общая и нижняя облачность в баллах и высота нижней границы облаков в метрах; квадратными скобками обозначены формы облаков: Ci - перистые, Cs - перисто-слоистые, Cc - перисто-кучевые, Ac - высококучевые, As - высокослоистые, Sc - слоисто-кучевые, Ns - слоисто-дождевые, Cu - кучевые, Cb - кучево-дождевые. Подробнее классификацию облаков см. в Атласе облаков (PDF).
T - Температура воздуха - температура, измеренная на высоте 2 м над землей.
Td - Температура точки росы - температура, при понижении до которой содержащийся в воздухе водяной пар достигнет насыщения.
f - Относительная влажность воздуха - влажноcть воздуха, измеренная на высоте 2 м над землей.
Te - Эффективная температура - температура, которую ощущает одетый по сезону человек в тени. Характеристика душности погоды. При расчете учитывается влияние влажности воздуха и скорости ветра на теплоощущения человека.
Tes - Эффективная температура на солнце - температура, которую ощущает человек, с поправкой на солнечный нагрев. Характеристика знойности погоды. Зависит от высоты солнца над горизонтом, облачности и скорости ветра. Ночью, в пасмурную погоду, а также при ветре 12 м/с и более поправка равна нулю.
P - Атмосферное давление - приведенное к уровню моря атмосферное давление.
Po - Атмосферное давление - измеренное на уровне метеостанции атмосферное давление.
Tmin - Минимальная температура - минимум температуры воздуха на высоте 2 м над землей.
Tmax - Максимальная температура - максимум температуры воздуха на высоте 2 м над землей.
R - Количество осадков - Количество выпавших осадков за период времени, мм. При наведении курсора мыши на число - период времени, за который выпало указанное количество осадков.
R24 - Количество осадков - Количество выпавших осадков за 24 часа, мм.
S - Снежный покров - Высота снежного покрова, см. При наведении курсора мыши на число - состояние снежного покрова и степень покрытия местности в баллах.